When you browse on this site, cookies collect data to enhance your experience and personalize the content and advertising you see.
Visit our Privacy Policy to learn more. By continuing to use the site, you agree to this use of cookies and data.
  • In Hungary
  • List of Countries
  • For 7 days
  • Water Temperature
  • Satellite Maps
  • Weather Map
  • News
  • Weather Widgets
  • user-avatar
    Login

    Hourly Weather Maslomecz

    Today, 18 January, Friday

    Time Temperature Precipitation Wind Pressure Humidity
    00:00 0°C° 0.1 mm 5 mps 735 mmHg 89%
    01:00 0°C° 0.1 mm 5 mps 735 mmHg 90%
    02:00 -1°C° 0.1 mm 6 mps 735 mmHg 90%
    03:00 0°C° 0 mm 5 mps 735 mmHg 90%
    04:00 0°C° 0 mm 5 mps 735 mmHg 90%
    05:00 0°C° 0 mm 5 mps 735 mmHg 89%
    06:00 0°C° 0 mm 5 mps 735 mmHg 90%
    07:00 0°C° 0 mm 5 mps 736 mmHg 90%
    08:00 0°C° 0 mm 5 mps 736 mmHg 90%
    09:00 0°C° 0.1 mm 5 mps 736 mmHg 91%
    10:00 0°C° 0.1 mm 5 mps 737 mmHg 91%
    11:00 0°C° 0.1 mm 5 mps 737 mmHg 91%
    12:00 0°C° 0 mm 5 mps 737 mmHg 88%
    13:00 -1°C° 0 mm 5 mps 738 mmHg 85%
    14:00 -2°C° 0 mm 6 mps 738 mmHg 81%
    15:00 -2°C° 0 mm 6 mps 739 mmHg 82%
    16:00 -1°C° 0 mm 5 mps 739 mmHg 82%
    17:00 -2°C° 0 mm 5 mps 740 mmHg 83%
    18:00 -4°C° 0 mm 5 mps 741 mmHg 84%
    19:00 -3°C° 0 mm 4 mps 741 mmHg 86%
    20:00 -4°C° 0 mm 3 mps 742 mmHg 87%
    21:00 -4°C° 0 mm 3 mps 743 mmHg 87%
    22:00 -4°C° 0 mm 3 mps 743 mmHg 87%
    23:00 -5°C° 0 mm 3 mps 744 mmHg 87%

    Tomorrow, 19 January, Saturday

    Time Temperature Precipitation Wind Pressure Humidity
    00:00 -5°C° 0 mm 3 mps 745 mmHg 88%
    01:00 -5°C° 0 mm 3 mps 745 mmHg 88%
    02:00 -5°C° 0 mm 3 mps 746 mmHg 88%
    03:00 -5°C° 0 mm 3 mps 746 mmHg 88%
    04:00 -5°C° 0 mm 3 mps 746 mmHg 89%
    05:00 -5°C° 0 mm 3 mps 746 mmHg 89%
    06:00 -6°C° 0 mm 3 mps 747 mmHg 90%
    07:00 -6°C° 0 mm 3 mps 747 mmHg 91%
    08:00 -6°C° 0 mm 3 mps 747 mmHg 92%
    09:00 -5°C° 0 mm 3 mps 748 mmHg 90%
    10:00 -5°C° 0 mm 3 mps 748 mmHg 88%
    11:00 -4°C° 0 mm 3 mps 748 mmHg 86%
    12:00 -4°C° 0 mm 3 mps 748 mmHg 84%
    13:00 -2°C° 0 mm 3 mps 748 mmHg 83%
    14:00 -2°C° 0 mm 2 mps 748 mmHg 81%
    15:00 -3°C° 0 mm 2 mps 748 mmHg 83%
    16:00 -3°C° 0 mm 2 mps 748 mmHg 85%
    17:00 -4°C° 0 mm 2 mps 748 mmHg 87%
    18:00 -4°C° 0 mm 2 mps 748 mmHg 87%
    19:00 -4°C° 0 mm 2 mps 748 mmHg 88%
    20:00 -5°C° 0 mm 2 mps 748 mmHg 89%
    21:00 -5°C° 0 mm 2 mps 748 mmHg 89%
    22:00 -5°C° 0 mm 2 mps 747 mmHg 89%
    23:00 -5°C° 0 mm 2 mps 747 mmHg 90%

    Day after tomorrow, 20 January, Sunday

    Time Temperature Precipitation Wind Pressure Humidity
    00:00 -5°C° 0 mm 2 mps 747 mmHg 89%
    01:00 -6°C° 0 mm 2 mps 747 mmHg 88%
    02:00 -6°C° 0 mm 2 mps 746 mmHg 88%
    03:00 -6°C° 0 mm 2 mps 746 mmHg 88%
    04:00 -6°C° 0 mm 2 mps 745 mmHg 88%
    05:00 -6°C° 0 mm 2 mps 745 mmHg 89%
    06:00 -6°C° 0 mm 2 mps 745 mmHg 90%
    07:00 -6°C° 0 mm 2 mps 744 mmHg 91%
    08:00 -7°C° 0 mm 2 mps 744 mmHg 91%
    09:00 -6°C° 0 mm 2 mps 744 mmHg 91%
    10:00 -6°C° 0 mm 2 mps 744 mmHg 90%
    11:00 -3°C° 0 mm 1 mps 744 mmHg 90%
    12:00 -3°C° 0 mm 1 mps 744 mmHg 88%
    13:00 -3°C° 0 mm 0 mps 743 mmHg 86%
    14:00 -3°C° 0 mm 0 mps 743 mmHg 84%
    15:00 -3°C° 0 mm 0 mps 743 mmHg 85%
    16:00 -3°C° 0 mm 0 mps 743 mmHg 87%
    17:00 -2°C° 0 mm 1 mps 743 mmHg 88%
    18:00 -3°C° 0 mm 1 mps 743 mmHg 89%
    19:00 -3°C° 0 mm 1 mps 743 mmHg 90%
    20:00 -3°C° 0 mm 1 mps 743 mmHg 90%
    21:00 -5°C° 0 mm 2 mps 744 mmHg 90%
    22:00 -6°C° 0 mm 2 mps 744 mmHg 90%
    23:00 -6°C° 0 mm 2 mps 744 mmHg 90%

    21 January, Monday

    Time Temperature Precipitation Wind Pressure Humidity
    00:00 -6°C° 0 mm 2 mps 744 mmHg 89%
    01:00 -7°C° 0 mm 3 mps 744 mmHg 88%
    02:00 -7°C° 0 mm 3 mps 745 mmHg 87%
    03:00 -7°C° 0 mm 3 mps 745 mmHg 87%
    04:00 -7°C° 0 mm 3 mps 745 mmHg 87%
    05:00 -8°C° 0 mm 4 mps 745 mmHg 86%
    06:00 -7°C° 0 mm 4 mps 746 mmHg 87%
    07:00 -6°C° 0 mm 3 mps 746 mmHg 88%
    08:00 -6°C° 0 mm 3 mps 747 mmHg 88%
    09:00 -6°C° 0 mm 3 mps 748 mmHg 87%
    10:00 -4°C° 0 mm 2 mps 748 mmHg 86%
    11:00 -4°C° 0 mm 2 mps 749 mmHg 84%
    12:00 -4°C° 0 mm 2 mps 749 mmHg 82%
    13:00 -4°C° 0 mm 2 mps 749 mmHg 79%
    14:00 -3°C° 0 mm 2 mps 749 mmHg 76%
    15:00 -2°C° 0 mm 1 mps 749 mmHg 78%
    16:00 -3°C° 0 mm 1 mps 749 mmHg 80%
    17:00 -3°C° 0 mm 1 mps 749 mmHg 82%
    18:00 -3°C° 0 mm 1 mps 750 mmHg 82%
    19:00 -4°C° 0 mm 1 mps 750 mmHg 83%
    20:00 -4°C° 0 mm 1 mps 750 mmHg 84%
    21:00 -4°C° 0 mm 1 mps 750 mmHg 85%
    22:00 -6°C° 0 mm 2 mps 750 mmHg 86%
    23:00 -6°C° 0 mm 2 mps 750 mmHg 87%

    22 January, Tuesday

    Time Temperature Precipitation Wind Pressure Humidity
    00:00 -7°C° 0 mm 2 mps 749 mmHg 88%
    01:00 -7°C° 0 mm 2 mps 749 mmHg 89%
    02:00 -7°C° 0 mm 2 mps 749 mmHg 90%
    03:00 -7°C° 0 mm 2 mps 748 mmHg 90%
    04:00 -8°C° 0 mm 2 mps 748 mmHg 90%
    05:00 -8°C° 0 mm 2 mps 747 mmHg 91%
    06:00 -8°C° 0 mm 2 mps 747 mmHg 90%
    07:00 -9°C° 0 mm 3 mps 747 mmHg 90%
    08:00 -10°C° 0 mm 3 mps 746 mmHg 90%
    09:00 -9°C° 0 mm 3 mps 746 mmHg 89%
    10:00 -9°C° 0 mm 3 mps 746 mmHg 88%
    11:00 -9°C° 0 mm 3 mps 745 mmHg 87%
    12:00 -8°C° 0 mm 3 mps 745 mmHg 86%
    13:00 -6°C° 0 mm 2 mps 744 mmHg 84%
    14:00 -6°C° 0 mm 2 mps 743 mmHg 82%
    15:00 -6°C° 0 mm 2 mps 743 mmHg 85%
    16:00 -7°C° 0 mm 2 mps 742 mmHg 88%
    17:00 -7°C° 0 mm 2 mps 742 mmHg 91%
    18:00 -8°C° 0 mm 3 mps 741 mmHg 91%
    19:00 -8°C° 0 mm 3 mps 741 mmHg 92%
    20:00 -9°C° 0 mm 3 mps 740 mmHg 93%
    21:00 -9°C° 0 mm 3 mps 739 mmHg 92%
    22:00 -9°C° 0 mm 3 mps 739 mmHg 91%
    23:00 -9°C° 0 mm 3 mps 738 mmHg 90%

    23 January, Wednesday

    Time Temperature Precipitation Wind Pressure Humidity
    00:00 -10°C° 0 mm 4 mps 738 mmHg 90%
    01:00 -10°C° 0 mm 4 mps 737 mmHg 91%
    02:00 -10°C° 0 mm 4 mps 737 mmHg 91%
    03:00 -9°C° 0 mm 4 mps 736 mmHg 92%
    04:00 -8°C° 0 mm 4 mps 735 mmHg 92%
    05:00 -8°C° 0 mm 4 mps 735 mmHg 93%
    06:00 -7°C° 0 mm 4 mps 734 mmHg 93%
    07:00 -7°C° 0 mm 5 mps 734 mmHg 93%
    08:00 -6°C° 0 mm 5 mps 734 mmHg 93%
    09:00 -6°C° 0.1 mm 5 mps 734 mmHg 92%
    10:00 -5°C° 0.1 mm 5 mps 733 mmHg 91%
    11:00 -4°C° 0.1 mm 5 mps 733 mmHg 90%
    12:00 -4°C° 0 mm 5 mps 733 mmHg 90%
    13:00 -2°C° 0 mm 5 mps 732 mmHg 90%
    14:00 -2°C° 0 mm 5 mps 732 mmHg 89%
    15:00 -2°C° 0 mm 4 mps 732 mmHg 91%
    16:00 -2°C° 0 mm 4 mps 732 mmHg 92%
    17:00 -1°C° 0 mm 3 mps 732 mmHg 94%
    18:00 -1°C° 0.1 mm 3 mps 731 mmHg 94%
    19:00 -1°C° 0.1 mm 3 mps 731 mmHg 95%
    20:00 -1°C° 0.1 mm 3 mps 731 mmHg 95%
    21:00 -1°C° 0.1 mm 3 mps 731 mmHg 95%
    22:00 -1°C° 0.1 mm 3 mps 731 mmHg 95%
    23:00 -1°C° 0.1 mm 3 mps 731 mmHg 95%
    Show more